Location: Peterborough
(44.3091°N, 78.3197°W)
Time: 07:10:48
(UTC-04:00)

Vanguard 1 Rocket - Pass Details

Date: 24 March 2023
Orbit: 655 x 4220 km, 34.3° (Epoch: 04 June)

Event Time Altitude Azimuth Distance (km) Brightness Sun altitude
Rises 03:31:55 0° 265° (W) 7,264 - -35.7°
Reaches altitude 10° 03:37:44 10° 262° (W) 5,686 - -35.0°
Maximum altitude 03:51:43 47° 195° (SSW) 2,190 - -33.2°
Exits shadow 03:54:15 39° 158° (SSE) 2,146 9.0 -32.8°
Drops below altitude 10° 03:59:07 10° 124° (ESE) 3,092 10.2 -32.2°
Sets 04:01:21 0° 117° (ESE) 3,781 10.8 -31.9°
